This is the latest recevied weather packets stored in our database for station/object K7BC. If no packets are shown the sender has not sent any weather packets the latest 10 day(s).
| Time | Temp. | Humidity | Pressure | Rain* | Wind** | Luminosity | Snow |
|---|---|---|---|---|---|---|---|
| 1777834243 | 16.11° C | 34% | 1016 hPa | 0 mm | - | - | - |
| 1777834123 | 16.11° C | 33% | 1016 hPa | 0 mm | - | - | - |
| 1777834003 | 16.67° C | 34% | 1016.1 hPa | 0 mm | - | - | - |
| 1777833882 | 16.67° C | 34% | 1016.1 hPa | 0 mm | - | - | - |
| 1777833762 | 16.11° C | 35% | 1016.2 hPa | 0 mm | - | - | - |
| 1777833642 | 16.11° C | 35% | 1016.2 hPa | 0 mm | - | - | - |
| 1777833522 | 16.11° C | 35% | 1016.3 hPa | 0 mm | - | - | - |
| 1777833402 | 16.11° C | 33% | 1016.2 hPa | 0 mm | - | - | - |
| 1777833282 | 16.11° C | 35% | 1016.4 hPa | 0 mm | - | - | - |
| 1777833162 | 16.11° C | 36% | 1016.5 hPa | 0 mm | - | - | - |
| 1777833042 | 16.11° C | 37% | 1016.4 hPa | 0 mm | - | - | - |
| 1777832921 | 16.11° C | 34% | 1016.4 hPa | 0 mm | - | - | - |
| 1777832801 | 16.11° C | 38% | 1016.4 hPa | 0 mm | - | - | - |
| 1777832683 | 15.56° C | 36% | 1016.4 hPa | 0 mm | - | - | - |
| 1777832563 | 15.56° C | 34% | 1016.4 hPa | 0 mm | - | - | - |
| 1777832442 | 15.56° C | 37% | 1016.3 hPa | 0 mm | - | - | - |
| 1777832322 | 15.56° C | 36% | 1016.4 hPa | 0 mm | - | - | - |
| 1777832202 | 15° C | 34% | 1016.3 hPa | 0 mm | - | - | - |
| 1777832082 | 15.56° C | 34% | 1016.3 hPa | 0 mm | - | - | - |
| 1777831962 | 15.56° C | 35% | 1016.4 hPa | 0 mm | - | - | - |
| 1777831842 | 15.56° C | 36% | 1016.3 hPa | 0 mm | - | - | - |
| 1777831722 | 15.56° C | 36% | 1016.4 hPa | 0 mm | - | - | - |
| 1777831602 | 15.56° C | 35% | 1016.4 hPa | 0 mm | - | - | - |
| 1777831481 | 15.56° C | 33% | 1016.4 hPa | 0 mm | - | - | - |
| 1777831361 | 15.56° C | 36% | 1016.3 hPa | 0 mm | - | - | - |
* Rain latest hour (hover to see other rain measurements)
** Current wind speed in m/s (hover to see current wind gust speed)